Lugano Airport LSZA

Flugplatz Daten

Name: Lugano Airport

Ident: LSZA

Lat: 46,00429916

Long: 8,910579681

Platzhöhe: 915 ft

IataCode: LUG

City: Lugano

Metar

2021/10/20 13:20
LSZA 201320Z 19004KT 9999 FEW050 BKN070 17/12 Q1023 NOSIG

Taf

Gewünschte Webcam nicht vorhanden? Dann fügen Sie eine hinzu. Sie wird dann so schnell wie möglich freigeschaltet
Url: Title: